Hourly Weather Francistown

Today, 1 October, Thursday

Time Temperature Precipitation Wind Pressure Humidity
00:00 +20°C° 0 mm 6 mps 676 mmHg 78%
01:00 +20°C° 0 mm 6 mps 675 mmHg 79%
02:00 +20°C° 0 mm 6 mps 675 mmHg 80%
03:00 +20°C° 0 mm 5 mps 675 mmHg 81%
04:00 +19°C° 0 mm 4 mps 674 mmHg 82%
05:00 +19°C° 0 mm 3 mps 674 mmHg 83%
06:00 +21°C° 0 mm 3 mps 675 mmHg 74%
07:00 +22°C° 0 mm 3 mps 675 mmHg 65%
08:00 +25°C° 0 mm 3 mps 676 mmHg 56%
09:00 +29°C° 0 mm 4 mps 676 mmHg 44%
10:00 +34°C° 0 mm 5 mps 677 mmHg 31%
11:00 +38°C° 0 mm 6 mps 677 mmHg 19%
12:00 +38°C° 0 mm 6 mps 676 mmHg 18%
13:00 +39°C° 0 mm 6 mps 675 mmHg 17%
14:00 +39°C° 0 mm 5 mps 674 mmHg 16%
15:00 +39°C° 0 mm 5 mps 674 mmHg 17%
16:00 +37°C° 0 mm 5 mps 674 mmHg 18%
17:00 +37°C° 0 mm 4 mps 674 mmHg 19%
18:00 +35°C° 0 mm 3 mps 674 mmHg 23%
19:00 +33°C° 0 mm 3 mps 674 mmHg 27%
20:00 +29°C° 0 mm 2 mps 674 mmHg 32%
21:00 +29°C° 0.1 mm 2 mps 674 mmHg 34%
22:00 +28°C° 0.1 mm 1 mps 674 mmHg 36%
23:00 +27°C° 0.1 mm 1 mps 674 mmHg 39%

Tomorrow, 2 October, Friday

Time Temperature Precipitation Wind Pressure Humidity
00:00 +27°C° 0 mm 1 mps 674 mmHg 39%
01:00 +26°C° 0 mm 2 mps 674 mmHg 39%
02:00 +26°C° 0 mm 2 mps 673 mmHg 40%
03:00 +25°C° 0.1 mm 2 mps 673 mmHg 42%
04:00 +25°C° 0.1 mm 3 mps 674 mmHg 44%
05:00 +25°C° 0.1 mm 3 mps 674 mmHg 46%
06:00 +25°C° 0.1 mm 4 mps 675 mmHg 48%
07:00 +25°C° 0.1 mm 5 mps 675 mmHg 51%
08:00 +25°C° 0.1 mm 5 mps 676 mmHg 54%
09:00 +28°C° 0 mm 5 mps 677 mmHg 43%
10:00 +32°C° 0 mm 5 mps 677 mmHg 32%
11:00 +36°C° 0 mm 5 mps 678 mmHg 21%
12:00 +36°C° 0 mm 5 mps 677 mmHg 21%
13:00 +36°C° 0 mm 4 mps 676 mmHg 20%
14:00 +37°C° 0 mm 4 mps 675 mmHg 19%
15:00 +36°C° 0 mm 3 mps 675 mmHg 20%
16:00 +36°C° 0 mm 3 mps 675 mmHg 21%
17:00 +36°C° 0 mm 2 mps 674 mmHg 21%
18:00 +34°C° 0.1 mm 3 mps 675 mmHg 29%
19:00 +30°C° 0.1 mm 4 mps 675 mmHg 37%
20:00 +28°C° 0.1 mm 5 mps 675 mmHg 44%
21:00 +27°C° 0 mm 5 mps 675 mmHg 50%
22:00 +26°C° 0 mm 5 mps 675 mmHg 56%
23:00 +23°C° 0 mm 5 mps 675 mmHg 62%

Day after tomorrow, 3 October, Saturday

Time Temperature Precipitation Wind Pressure Humidity
00:00 +23°C° 0 mm 5 mps 675 mmHg 62%
01:00 +23°C° 0 mm 5 mps 675 mmHg 62%
02:00 +23°C° 0 mm 5 mps 674 mmHg 63%
03:00 +23°C° 0 mm 4 mps 674 mmHg 64%
04:00 +23°C° 0 mm 4 mps 675 mmHg 66%
05:00 +22°C° 0 mm 3 mps 675 mmHg 67%
06:00 +24°C° 0 mm 3 mps 675 mmHg 63%
07:00 +25°C° 0 mm 3 mps 676 mmHg 59%
08:00 +26°C° 0 mm 3 mps 676 mmHg 55%
09:00 +30°C° 0 mm 3 mps 676 mmHg 44%
10:00 +34°C° 0 mm 2 mps 677 mmHg 34%
11:00 +36°C° 0 mm 1 mps 677 mmHg 24%
12:00 +38°C° 0 mm 2 mps 676 mmHg 21%
13:00 +39°C° 0 mm 3 mps 676 mmHg 19%
14:00 +41°C° 0 mm 4 mps 675 mmHg 16%
15:00 +40°C° 0 mm 4 mps 675 mmHg 17%
16:00 +40°C° 0 mm 4 mps 674 mmHg 17%
17:00 +38°C° 0 mm 4 mps 674 mmHg 18%
18:00 +37°C° 0 mm 3 mps 674 mmHg 19%
19:00 +35°C° 0 mm 3 mps 675 mmHg 21%
20:00 +34°C° 0 mm 2 mps 675 mmHg 23%
21:00 +31°C° 0 mm 3 mps 675 mmHg 28%
22:00 +30°C° 0 mm 3 mps 675 mmHg 33%
23:00 +29°C° 0 mm 3 mps 675 mmHg 38%

4 October, Sunday

Time Temperature Precipitation Wind Pressure Humidity
00:00 +28°C° 0 mm 4 mps 675 mmHg 42%
01:00 +26°C° 0 mm 4 mps 675 mmHg 46%
02:00 +25°C° 0 mm 4 mps 674 mmHg 50%
03:00 +25°C° 0 mm 4 mps 674 mmHg 52%
04:00 +23°C° 0 mm 4 mps 675 mmHg 54%
05:00 +22°C° 0 mm 4 mps 675 mmHg 56%
06:00 +23°C° 0 mm 5 mps 676 mmHg 52%
07:00 +25°C° 0 mm 5 mps 676 mmHg 49%
08:00 +27°C° 0 mm 5 mps 677 mmHg 45%
09:00 +29°C° 0 mm 5 mps 677 mmHg 39%
10:00 +33°C° 0 mm 5 mps 677 mmHg 33%
11:00 +36°C° 0 mm 5 mps 678 mmHg 27%
12:00 +37°C° 0 mm 4 mps 677 mmHg 23%
13:00 +40°C° 0 mm 4 mps 677 mmHg 19%
14:00 +41°C° 0 mm 4 mps 677 mmHg 16%
15:00 +39°C° 0 mm 6 mps 676 mmHg 20%
16:00 +38°C° 0 mm 8 mps 676 mmHg 25%
17:00 +36°C° 0 mm 10 mps 675 mmHg 29%
18:00 +32°C° 0 mm 10 mps 676 mmHg 37%
19:00 +29°C° 0 mm 10 mps 676 mmHg 46%
20:00 +26°C° 0 mm 11 mps 677 mmHg 54%
21:00 +23°C° 0 mm 10 mps 677 mmHg 62%
22:00 +21°C° 0 mm 10 mps 677 mmHg 69%
23:00 +19°C° 0 mm 10 mps 677 mmHg 76%

5 October, Monday

Time Temperature Precipitation Wind Pressure Humidity
00:00 +19°C° 0 mm 10 mps 677 mmHg 75%
01:00 +18°C° 0 mm 10 mps 677 mmHg 75%
02:00 +18°C° 0 mm 10 mps 677 mmHg 74%
03:00 +19°C° 0 mm 9 mps 677 mmHg 72%
04:00 +19°C° 0 mm 9 mps 677 mmHg 71%
05:00 +20°C° 0 mm 8 mps 678 mmHg 69%
06:00 +19°C° 0 mm 9 mps 678 mmHg 69%
07:00 +18°C° 0 mm 9 mps 678 mmHg 69%
08:00 +18°C° 0 mm 9 mps 679 mmHg 70%
09:00 +21°C° 0 mm 9 mps 679 mmHg 63%
10:00 +23°C° 0 mm 9 mps 679 mmHg 56%
11:00 +24°C° 0 mm 8 mps 678 mmHg 49%
12:00 +27°C° 0 mm 8 mps 678 mmHg 44%
13:00 +29°C° 0 mm 8 mps 678 mmHg 40%
14:00 +32°C° 0 mm 7 mps 677 mmHg 35%
15:00 +31°C° 0 mm 8 mps 677 mmHg 36%
16:00 +31°C° 0 mm 8 mps 676 mmHg 37%
17:00 +29°C° 0 mm 9 mps 676 mmHg 38%
18:00 +27°C° 0 mm 9 mps 676 mmHg 44%
19:00 +24°C° 0 mm 9 mps 676 mmHg 50%
20:00 +22°C° 0 mm 9 mps 676 mmHg 56%
21:00 +22°C° 0.2 mm 8 mps 677 mmHg 58%
22:00 +21°C° 0.2 mm 8 mps 678 mmHg 60%
23:00 +20°C° 0.2 mm 8 mps 678 mmHg 62%

6 October, Tuesday

Time Temperature Precipitation Wind Pressure Humidity
00:00 +18°C° 1.8 mm 7 mps 678 mmHg 69%
01:00 +17°C° 1.8 mm 7 mps 678 mmHg 76%
02:00 +16°C° 1.8 mm 7 mps 678 mmHg 83%
03:00 +16°C° 0.9 mm 7 mps 678 mmHg 82%
04:00 +16°C° 0.9 mm 7 mps 677 mmHg 82%
05:00 +16°C° 0.9 mm 7 mps 677 mmHg 81%
06:00 +16°C° 0 mm 6 mps 678 mmHg 79%
07:00 +17°C° 0 mm 6 mps 678 mmHg 77%
08:00 +17°C° 0 mm 6 mps 679 mmHg 74%
09:00 +19°C° 0 mm 6 mps 678 mmHg 69%
10:00 +20°C° 0 mm 6 mps 678 mmHg 65%
11:00 +21°C° 0 mm 6 mps 678 mmHg 60%
12:00 +23°C° 0 mm 6 mps 678 mmHg 52%
13:00 +27°C° 0 mm 5 mps 677 mmHg 44%
14:00 +29°C° 0 mm 5 mps 677 mmHg 36%
15:00 +29°C° 0 mm 5 mps 677 mmHg 35%
16:00 +28°C° 0 mm 6 mps 677 mmHg 34%
17:00 +28°C° 0 mm 6 mps 677 mmHg 33%
18:00 +27°C° 0 mm 6 mps 677 mmHg 37%
19:00 +24°C° 0 mm 7 mps 678 mmHg 42%
20:00 +23°C° 0 mm 7 mps 678 mmHg 46%
21:00 +22°C° 0 mm 7 mps 678 mmHg 51%
22:00 +21°C° 0 mm 7 mps 679 mmHg 56%
23:00 +20°C° 0 mm 7 mps 679 mmHg 61%
Show more